Kenora, Ontario

3:20 PM CDT on July 28, 2017 (GMT -0500)
Kenora

Weather History for CYQK - March, 2013

Change the Weather History Date:

Monday, March 11, 2013

  Actual Average Record
Temperature  
Mean Temperature 14 °F -  
Max Temperature 24 °F 36 °F 57 °F (2012)
Min Temperature 4 °F 17 °F -13 °F (2009)
Degree Days  
Heating Degree Days 51    
Moisture  
Dew Point 5 °F    
Average Humidity 66    
Maximum Humidity 92    
Minimum Humidity 44    
Precipitation  
Precipitation 0.00 in 0.04 in - ()
Sea Level Pressure  
Sea Level Pressure 29.99 in    
Wind  
Wind Speed 6 mph ()    
Max Wind Speed 10 mph    
Max Gust Speed -    
Visibility 14.6 miles    
Events Snow    
Averages and records for this station are not official NWS values.
T = Trace of Precipitation, MM = Missing Value Source: Averaged Metar Reports

Daily Weather History Graph

Daily Weather History Graph

Search for Another Location

Airport or City:

Trip Planner

Search our weather history database for the weather conditions in past years. The results will help you decide how hot, cold, wet, or windy it might be!

Date:

Astronomy

Mar. 11, 2013 Rise Set
Actual Time 7:38 AM CDT 7:16 PM CDT
Civil Twilight 7:06 AM CDT 7:48 PM CDT
Nautical Twilight 6:29 AM CDT 8:26 PM CDT
Astronomical Twilight 5:51 AM CDT 9:04 PM CDT
Moon 7:10 AM CDT (3/11) 7:35 PM CDT (3/11)
Length of Visible Light 12h 41m
Length of Day
11h 37m
Waning Crescent, 0% of the Moon is Illuminated
Mar 11
Waning Crescent
Mar 11
New
Mar 19
First Quarter
Mar 27
Full
Apr 2
Last Quarter

Hourly Weather History & Observations

Time (CDT) Temp. Windchill Dew Point Humidity Pressure Visibility Wind Dir Wind Speed Gust Speed Precip Events Conditions
12:00 AM 14.0 °F 3.9 °F 1.4 °F 57% 30.15 in 15.0 mi ENE 6.9 mph - N/A   Clear
1:00 AM 12 °F - 1 °F 48% 30.15 in 15 mi ENE 8.1 mph - -   Clear
1:00 AM 12.2 °F 0.7 °F 1.4 °F 62% 30.15 in 15.0 mi ENE 8.1 mph - N/A   Partly Cloudy
2:00 AM 10.4 °F -2.4 °F -0.4 °F 62% 30.12 in 15.0 mi East 9.2 mph - N/A   Partly Cloudy
3:00 AM 8.6 °F -4.7 °F 1.4 °F 73% 30.11 in 15.0 mi East 9.2 mph - N/A   Clear
4:00 AM 8.6 °F -1.3 °F 3.2 °F 79% 30.09 in 15.0 mi East 5.8 mph - N/A   Clear
6:00 AM 5.0 °F -5.6 °F 1.4 °F 85% 30.05 in 15.0 mi ENE 5.8 mph - N/A   Partly Cloudy
7:00 AM 5 °F - 2 °F 79% 30.04 in 15 mi ENE 6.9 mph - -   Scattered Clouds
7:00 AM 5.0 °F -6.9 °F 1.4 °F 85% 30.04 in 15.0 mi ENE 6.9 mph - N/A   Partly Cloudy
8:00 AM 5.0 °F -9.1 °F 1.4 °F 85% 30.04 in 15.0 mi ENE 9.2 mph - N/A   Mostly Cloudy
9:00 AM 5.0 °F -4.1 °F 3.2 °F 92% 30.03 in 15.0 mi NE 4.6 mph - N/A   Overcast
9:29 AM 6.8 °F -0.1 °F 3.2 °F 85% 30.03 in 12.0 mi East 3.5 mph - N/A Snow Light Snow
10:00 AM 10.4 °F -1.5 °F 6.8 °F 85% 30.03 in 10.0 mi ESE 8.1 mph - N/A Snow Light Snow
11:00 AM 12.2 °F -1.0 °F 6.8 °F 79% 30.00 in 12.0 mi ESE 10.4 mph - N/A Snow Light Snow
12:00 PM 15.8 °F 10.2 °F 6.8 °F 68% 29.98 in 15.0 mi ENE 3.5 mph - N/A Snow Light Snow
1:00 PM 19 °F - 8 °F 50% 29.95 in 15 mi North 4.6 mph - - Snow Light Snow
2:00 PM 21.2 °F 13.6 °F 8.6 °F 58% 29.92 in 15.0 mi NE 5.8 mph - N/A   Overcast
3:00 PM 23.0 °F 15.8 °F 8.6 °F 54% 29.90 in 15.0 mi North 5.8 mph - N/A   Overcast
4:00 PM 23.0 °F 13.9 °F 8.6 °F 54% 29.88 in 15.0 mi North 8.1 mph - N/A   Overcast
5:00 PM 24.8 °F 17.9 °F 8.6 °F 50% 29.88 in 15.0 mi NE 5.8 mph - N/A   Overcast
6:00 PM 23.0 °F 15.8 °F 8.6 °F 54% 29.88 in 15.0 mi NE 5.8 mph - N/A   Overcast
7:00 PM 22 °F - 9 °F 44% 29.90 in 15 mi NNE 5.8 mph - -   Overcast
7:00 PM 23.0 °F 15.8 °F 8.6 °F 54% 29.90 in 15.0 mi NNE 5.8 mph - N/A   Overcast
8:00 PM 21.2 °F 14.9 °F 8.6 °F 58% 29.91 in 15.0 mi NNE 4.6 mph - N/A   Overcast
9:00 PM 19.4 °F 12.8 °F 8.6 °F 63% 29.91 in 15.0 mi NNE 4.6 mph - N/A   Overcast
10:00 PM 19.4 °F 11.5 °F 8.6 °F 63% 29.91 in 15.0 mi NE 5.8 mph - N/A   Overcast
11:00 PM 17.6 °F 10.7 °F 8.6 °F 68% 29.90 in 15.0 mi NNE 4.6 mph - N/A   Overcast